ONEWEB-0049, 45154

Orbit data source: Space-Track

ONEWEB-0049, 45154 is a payload satellite owned by One Web (UK) in LEO that was launched on Thu, 06 Feb 2020 UTC via a SOYUZ-2-1B launch vehicle from the Tyuratam Missile And Space Complex (TTMTR). Payload-class satellites include a variety of spacecraft equipped with specific instruments for various scientific and technological missions. These include communications satellites like Starlink; space stations such as the ISS; scientific satellites like the Hubble; Earth observation satellites from companies like Planet Labs, Umbra, and HawkEye 360; GPS; miniature CubeSats for education and research; and military/defense satellites.

Loading next visibility...
Identifier
45154, 2020-008Z
Orbit
LEO
Country
Flag of UKUK
Related business
Manufacturer
One Web
Mission
Operational Commercial Communications
Bus & Motor
ARROW, Unknown motor
Mass
148 kg wet, ~140 kg dry
Launch date (UTC)
2020-02-06 (6 years ago)
Launch vehicle
SOYUZ-2-1B
Launch site
Tyuratam Missile And Space Complex (TTMTR)
Object type
Payload
Rocket body
Debris
Shape & HBR
Trap Box + 2 Pan, 2.5 m
Radar Cross Section
2.957 m², Large (>1 m²)

Expand to show TLE details & history
Last TLE update: 8 hours ago

TLE from 8 hours ago
0 ONEWEB-0049
1 45154U 20008Z   25259.25226355 -.00000575  00000-0 -16831-2 0  9992
2 45154  87.8732  90.9153 0002312  88.5470 271.5922 13.10370982272152
Epoch: 2025-09-16T06:03Z
TLE epoch observation values (Epoch: 2025-09-16T06:03:15.57Z)
Latitude
-0.00005°
Longitude
4.65519°
Altitude
1,224.563 km
Speed
7.242 km/s
True Right ascension
06h 03m 39s
True Declination
0° 00' 00"
Sunlit
Object was in daylight at epoch
Visualization orbit readout
Latitude
Unknown
Longitude
Unknown
Altitude
Unknown
Speed
Unknown
Apparent Right ascension
Unknown
Apparent Declination
Unknown
Sunlit
N/A
Visualization observer readout
Local Sidereal Time
06:48:55
Azimuth
Unknown
Elevation
Unknown
Doppler factor
Unknown
Orbital elements
Apogee altitude
1,220.601 km
Perigee altitude
1,217.088 km
Semi-major axis
7,596.981 km
Eccentricity
0.00023
Inclination
87.8732°
RAAN
90.9153°
Arg. of periapsis
88.547°
True anomaly
271.56572°
Mean anomaly
271.5922°
Eccentric anomaly
271.57896°
Mean motion
3.27779 °/min
Orbital period
109.83 mins
BSTAR
-0.0016831
Loading maneuver chart data...
Computing Atmospheric mass density...
Loading historical data...
Loading historical data...
Loading historical data...
Loading historical data...
Loading historical data...
Loading historical data...
Loading historical data...

Documentation

Showing up to 5 results
|